timestamp,wind_dir_avg,wind_spd_avg,wind_spd_max_dir,wind_spd_gust,battery_voltage,lat,long
2021-11-23 00:04:01+00:00,198.0,7.75,214.0,9.36,12.57,47.59359,-54.27349
2021-11-23 00:14:01+00:00,195.0,7.64,213.0,9.05,12.57,47.59359,-54.27349
2021-11-23 00:24:01+00:00,183.0,7.58,196.0,9.32,12.57,47.59359,-54.27349
2021-11-23 00:34:01+00:00,172.0,8.25,156.0,10.04,12.57,47.59359,-54.27349
2021-11-23 00:44:01+00:00,179.0,8.14,178.0,9.85,12.57,47.59359,-54.27349
2021-11-23 00:54:01+00:00,164.0,8.15,148.0,10.05,12.57,47.59359,-54.27349
2021-11-23 01:04:01+00:00,167.0,7.71,148.0,9.46,12.57,47.59359,-54.27349
2021-11-23 01:14:01+00:00,142.0,8.75,144.0,9.52,12.57,47.59359,-54.27349
2021-11-23 01:24:01+00:00,153.0,7.83,146.0,9.36,12.57,47.59359,-54.27349
2021-11-23 01:34:01+00:00,156.0,8.23,144.0,9.96,12.57,47.59359,-54.27349
2021-11-23 01:44:01+00:00,172.0,8.33,153.0,9.86,12.57,47.59359,-54.27349
2021-11-23 01:54:01+00:00,174.0,7.37,149.0,9.27,12.57,47.59359,-54.27349
2021-11-23 02:04:01+00:00,179.0,8.26,151.0,9.6,12.57,47.59359,-54.27349
2021-11-23 02:14:01+00:00,170.0,9.36,156.0,10.67,12.49,47.59359,-54.27349
2021-11-23 02:24:01+00:00,163.0,9.87,153.0,11.7,12.49,47.59359,-54.27349
2021-11-23 02:34:01+00:00,154.0,8.92,151.0,10.01,12.49,47.59359,-54.27349
2021-11-23 02:44:01+00:00,162.0,9.19,154.0,11.01,12.49,47.59359,-54.27349
2021-11-23 02:54:01+00:00,160.0,9.87,150.0,11.93,12.49,47.59359,-54.27349
2021-11-23 03:04:01+00:00,150.0,10.26,149.0,11.55,12.49,47.59359,-54.27349
2021-11-23 03:14:01+00:00,167.0,9.18,153.0,10.71,12.49,47.59359,-54.27349
2021-11-23 03:24:01+00:00,184.0,7.18,181.0,8.4,12.49,47.59359,-54.27349
2021-11-23 03:34:01+00:00,181.0,8.45,182.0,9.35,12.49,47.59359,-54.27349
2021-11-23 03:44:01+00:00,180.0,8.74,180.0,10.65,12.49,47.59359,-54.27349
2021-11-23 03:54:01+00:00,159.0,8.68,148.0,10.05,12.49,47.59359,-54.27349
2021-11-23 04:04:01+00:00,168.0,7.16,141.0,8.74,12.49,47.59359,-54.27349
2021-11-23 04:14:00+00:00,170.0,6.53,142.0,7.87,12.49,47.59359,-54.27349
2021-11-23 04:24:00+00:00,179.0,6.59,175.0,7.4,12.49,47.59359,-54.27349
2021-11-23 04:34:00+00:00,177.0,6.82,181.0,7.48,12.49,47.59359,-54.27349
2021-11-23 04:44:00+00:00,181.0,7.91,185.0,8.81,12.49,47.59359,-54.27349
2021-11-23 04:54:00+00:00,142.0,8.25,141.0,9.26,12.49,47.59359,-54.27349
2021-11-23 05:04:00+00:00,152.0,9.33,150.0,10.94,12.49,47.59359,-54.27349
2021-11-23 05:14:01+00:00,151.0,9.94,150.0,11.09,12.49,47.59359,-54.27349
2021-11-23 05:24:01+00:00,152.0,11.03,150.0,12.0,12.49,47.59359,-54.27349
2021-11-23 05:34:01+00:00,169.0,11.33,155.0,12.8,12.49,47.59359,-54.27349
2021-11-23 05:44:01+00:00,154.0,9.7,148.0,11.44,12.49,47.59359,-54.27349
2021-11-23 05:54:01+00:00,151.0,9.84,152.0,11.27,12.49,47.59359,-54.27349
2021-11-23 06:04:01+00:00,162.0,9.18,149.0,11.44,12.49,47.59359,-54.27349
2021-11-23 06:14:01+00:00,154.0,8.48,146.0,9.83,12.49,47.59359,-54.27349
2021-11-23 06:24:01+00:00,147.0,8.84,143.0,10.25,12.49,47.59359,-54.27349
2021-11-23 06:34:01+00:00,149.0,8.76,143.0,9.94,12.49,47.59359,-54.27349
2021-11-23 06:44:01+00:00,148.0,8.67,145.0,9.41,12.49,47.59359,-54.27349
2021-11-23 06:54:01+00:00,139.0,7.93,139.0,8.82,12.49,47.59359,-54.27349
2021-11-23 07:04:01+00:00,174.0,9.02,154.0,10.89,12.49,47.59359,-54.27349
2021-11-23 07:14:00+00:00,156.0,10.73,154.0,12.01,12.41,47.59359,-54.27349
2021-11-23 07:24:00+00:00,175.0,10.44,152.0,12.11,12.41,47.59359,-54.27349
2021-11-23 07:34:00+00:00,170.0,9.47,156.0,10.99,12.41,47.59359,-54.27349
2021-11-23 07:44:00+00:00,179.0,9.53,182.0,11.45,12.41,47.59359,-54.27349
2021-11-23 07:54:00+00:00,168.0,11.05,178.0,12.69,12.41,47.59359,-54.27349
2021-11-23 08:04:00+00:00,161.0,10.1,151.0,11.78,12.41,47.59359,-54.27349
2021-11-23 08:14:01+00:00,160.0,10.65,162.0,11.79,12.41,47.59359,-54.27349
2021-11-23 08:24:01+00:00,163.0,10.5,154.0,12.12,12.41,47.59359,-54.27349
2021-11-23 08:34:01+00:00,174.0,8.94,177.0,10.63,12.41,47.59359,-54.27349
2021-11-23 08:44:01+00:00,155.0,10.13,152.0,11.71,12.41,47.59359,-54.27349
2021-11-23 08:54:01+00:00,157.0,9.28,156.0,10.22,12.41,47.59359,-54.27349
2021-11-23 09:04:01+00:00,154.0,11.25,151.0,12.66,12.41,47.59359,-54.27349
2021-11-23 09:14:00+00:00,152.0,9.73,147.0,11.07,12.41,47.59359,-54.27349
2021-11-23 09:24:00+00:00,160.0,9.62,163.0,10.82,12.41,47.59359,-54.27349
2021-11-23 09:34:00+00:00,163.0,7.72,162.0,8.9,12.41,47.59359,-54.27349
2021-11-23 09:44:00+00:00,158.0,10.05,158.0,11.48,12.41,47.59359,-54.27349
2021-11-23 09:54:00+00:00,155.0,9.45,167.0,10.68,12.41,47.59359,-54.27349
2021-11-23 10:04:00+00:00,152.0,10.07,161.0,11.57,12.41,47.59359,-54.27349
2021-11-23 10:14:01+00:00,154.0,10.71,151.0,12.46,12.41,47.59359,-54.27349
2021-11-23 10:24:01+00:00,147.0,10.02,148.0,11.51,12.41,47.59359,-54.27349
2021-11-23 10:34:01+00:00,166.0,9.11,161.0,10.24,12.41,47.59359,-54.27349
2021-11-23 10:44:01+00:00,145.0,9.24,143.0,10.39,12.41,47.59359,-54.27349
2021-11-23 10:54:01+00:00,161.0,9.75,165.0,11.15,12.41,47.59359,-54.27349
2021-11-23 11:04:01+00:00,167.0,10.56,170.0,11.95,12.41,47.59359,-54.27349
2021-11-23 11:14:00+00:00,161.0,10.89,165.0,12.35,12.41,47.59359,-54.27349
2021-11-23 11:24:00+00:00,158.0,12.07,166.0,13.69,12.41,47.59359,-54.27349
2021-11-23 11:34:00+00:00,157.0,9.44,149.0,11.8,12.41,47.59359,-54.27349
2021-11-23 11:44:00+00:00,154.0,7.89,146.0,9.32,12.41,47.59359,-54.27349
2021-11-23 11:54:00+00:00,157.0,9.35,164.0,10.93,12.41,47.59359,-54.27349
2021-11-23 12:04:00+00:00,166.0,13.37,174.0,14.52,12.41,47.59359,-54.27349
2021-11-23 12:14:00+00:00,178.0,11.95,180.0,13.44,12.97,47.59359,-54.27349
2021-11-23 12:24:00+00:00,164.0,12.09,164.0,13.59,12.97,47.59359,-54.27349
2021-11-23 12:34:00+00:00,167.0,11.55,164.0,13.18,12.97,47.59359,-54.27349
2021-11-23 12:44:00+00:00,166.0,10.44,160.0,12.21,12.97,47.59359,-54.27349
2021-11-23 12:54:00+00:00,159.0,9.37,155.0,11.45,12.97,47.59359,-54.27349
2021-11-23 13:04:00+00:00,166.0,10.55,159.0,12.91,12.97,47.59359,-54.27349
2021-11-23 13:14:01+00:00,159.0,10.58,156.0,12.24,13.29,47.59359,-54.27349
2021-11-23 13:24:01+00:00,155.0,10.58,149.0,12.25,13.29,47.59359,-54.27349
2021-11-23 13:34:01+00:00,156.0,10.39,151.0,11.63,13.29,47.59359,-54.27349
2021-11-23 13:44:01+00:00,153.0,10.18,156.0,11.63,13.29,47.59359,-54.27349
2021-11-23 13:54:01+00:00,165.0,10.0,152.0,12.36,13.29,47.59359,-54.27349
2021-11-23 14:04:01+00:00,158.0,11.78,162.0,14.22,13.29,47.59359,-54.27349
2021-11-23 14:14:01+00:00,150.0,11.38,146.0,12.8,13.53,47.59359,-54.27349
2021-11-23 14:24:01+00:00,153.0,10.9,163.0,13.22,13.53,47.59359,-54.27349
2021-11-23 14:34:01+00:00,148.0,9.72,142.0,11.03,13.53,47.59359,-54.27349
2021-11-23 14:44:01+00:00,152.0,10.38,150.0,11.63,13.53,47.59359,-54.27349
2021-11-23 14:54:01+00:00,150.0,9.44,147.0,11.01,13.53,47.59359,-54.27349
2021-11-23 15:04:01+00:00,152.0,10.43,154.0,12.9,13.53,47.59359,-54.27349
2021-11-23 15:14:01+00:00,149.0,9.87,150.0,12.54,13.84,47.59359,-54.27349
2021-11-23 15:24:01+00:00,149.0,9.98,151.0,11.68,13.84,47.59359,-54.27349
2021-11-23 15:34:01+00:00,152.0,10.47,148.0,11.83,13.84,47.59359,-54.27349
2021-11-23 15:44:01+00:00,149.0,8.93,149.0,10.46,13.84,47.59359,-54.27349
2021-11-23 15:54:01+00:00,152.0,9.92,152.0,11.75,13.84,47.59359,-54.27349
2021-11-23 16:04:01+00:00,142.0,9.38,144.0,10.62,13.84,47.59359,-54.27349
2021-11-23 16:14:01+00:00,144.0,9.09,156.0,10.87,13.84,47.59359,-54.27349
2021-11-23 16:24:01+00:00,145.0,10.37,149.0,11.96,13.84,47.59359,-54.27349
2021-11-23 16:34:01+00:00,144.0,9.67,144.0,11.17,13.84,47.59359,-54.27349
2021-11-23 16:44:01+00:00,146.0,9.51,145.0,10.99,13.84,47.59359,-54.27349
2021-11-23 16:54:01+00:00,149.0,10.62,149.0,12.3,13.84,47.59359,-54.27349
2021-11-23 17:04:01+00:00,145.0,10.25,143.0,10.98,13.84,47.59359,-54.27349
2021-11-23 17:14:01+00:00,152.0,11.67,154.0,13.17,13.84,47.59359,-54.27349
2021-11-23 17:24:01+00:00,153.0,12.47,158.0,13.69,13.84,47.59359,-54.27349
2021-11-23 17:34:01+00:00,149.0,10.39,149.0,12.58,13.84,47.59359,-54.27349
2021-11-23 17:44:01+00:00,156.0,10.69,150.0,13.25,13.84,47.59359,-54.27349
2021-11-23 17:54:01+00:00,149.0,10.07,148.0,11.51,13.84,47.59359,-54.27349
2021-11-23 18:04:01+00:00,147.0,11.27,148.0,12.75,13.84,47.59359,-54.27349
2021-11-23 18:14:01+00:00,148.0,10.32,145.0,11.3,13.6,47.59359,-54.27349
2021-11-23 18:24:01+00:00,151.0,11.61,157.0,12.98,13.6,47.59359,-54.27349
2021-11-23 18:34:01+00:00,154.0,11.24,158.0,13.24,13.6,47.59359,-54.27349
2021-11-23 18:44:01+00:00,153.0,12.56,153.0,14.31,13.6,47.59359,-54.27349
2021-11-23 18:54:01+00:00,153.0,12.49,154.0,14.45,13.6,47.59359,-54.27349
2021-11-23 19:04:01+00:00,152.0,11.83,156.0,14.41,13.6,47.59359,-54.27349
2021-11-23 19:14:01+00:00,154.0,11.91,150.0,12.94,13.21,47.59359,-54.27349
2021-11-23 19:24:01+00:00,152.0,11.65,153.0,13.92,13.21,47.59359,-54.27349
2021-11-23 19:34:01+00:00,146.0,9.64,145.0,11.15,13.21,47.59359,-54.27349
2021-11-23 19:44:01+00:00,144.0,10.06,147.0,11.25,13.21,47.59359,-54.27349
2021-11-23 19:54:01+00:00,147.0,10.39,148.0,12.59,13.21,47.59359,-54.27349
2021-11-23 20:04:01+00:00,148.0,10.64,146.0,12.4,13.21,47.59359,-54.27349
2021-11-23 20:14:01+00:00,152.0,11.17,153.0,13.78,12.73,47.59359,-54.27349
2021-11-23 20:24:01+00:00,156.0,12.15,161.0,14.15,12.73,47.59359,-54.27349
2021-11-23 20:34:01+00:00,152.0,12.38,159.0,15.87,12.73,47.59359,-54.27349
2021-11-23 20:44:01+00:00,158.0,12.71,159.0,13.79,12.73,47.59359,-54.27349
2021-11-23 20:54:01+00:00,153.0,11.49,160.0,13.63,12.73,47.59359,-54.27349
2021-11-23 21:04:01+00:00,153.0,13.09,147.0,15.07,12.73,47.59359,-54.27349
2021-11-23 21:14:01+00:00,157.0,12.99,154.0,14.4,12.65,47.59359,-54.27349
2021-11-23 21:24:01+00:00,152.0,11.35,160.0,14.19,12.65,47.59359,-54.27349
2021-11-23 21:34:01+00:00,151.0,11.54,150.0,13.23,12.65,47.59359,-54.27349
2021-11-23 21:44:01+00:00,158.0,13.77,163.0,15.93,12.65,47.59359,-54.27349
2021-11-23 21:54:01+00:00,157.0,14.36,161.0,16.9,12.65,47.59359,-54.27349
2021-11-23 22:04:01+00:00,155.0,12.86,151.0,14.76,12.65,47.59359,-54.27349
2021-11-23 22:14:01+00:00,155.0,11.89,153.0,14.08,12.57,47.59359,-54.27349
2021-11-23 22:24:01+00:00,153.0,11.86,152.0,13.1,12.57,47.59359,-54.27349
2021-11-23 22:34:01+00:00,154.0,12.94,146.0,14.87,12.57,47.59359,-54.27349
2021-11-23 22:44:01+00:00,151.0,11.35,152.0,13.92,12.57,47.59359,-54.27349
2021-11-23 22:54:01+00:00,154.0,11.72,153.0,13.83,12.57,47.59359,-54.27349
2021-11-23 23:04:01+00:00,153.0,11.11,160.0,13.27,12.57,47.59359,-54.27349
2021-11-23 23:14:01+00:00,150.0,10.63,157.0,12.15,12.57,47.59359,-54.27349
2021-11-23 23:24:01+00:00,148.0,10.15,145.0,11.8,12.57,47.59359,-54.27349
2021-11-23 23:34:01+00:00,149.0,10.74,149.0,12.24,12.57,47.59359,-54.27349
2021-11-23 23:44:01+00:00,155.0,12.59,160.0,15.18,12.57,47.59359,-54.27349
2021-11-23 23:54:01+00:00,149.0,12.12,159.0,14.69,12.57,47.59359,-54.27349
